Theta_e
329 325 317 311 309 307 308 304 298 295 291 284 283 285 286 291 294 290 290 295 293 299 300 301 309 310 307 303 303 303 303 298 297 296 298 308 315 311 313 309 309 313 316 317 319 321 321 332 337 342 345 342 341 342 343 346 345 345 345 341 345 345 346 346 346 346 345 344 345 345 344 344 344 345 346 344 344 344 342 342 341 344 343 341 341 341 340 339 340 339 338 337 336 336 337 337 336
325 314 309 309 308 309 305 299 291 287 286 283 284 285 287 289 290 288 289 291 294 296 299 299 309 310 308 306 305 304 300 301 301 299 303 311 309 312 308 308 309 312 315 316 318 319 321 322 335 340 343 344 343 341 341 344 342 343 344 344 344 345 346 344 344 343 346 346 345 345 345 345 346 346 345 345 346 345 342 342 340 341 344 343 340 341 340 340 339 339 338 336 336 336 336 336 335
316 308 307 309 307 304 298 296 292 282 284 280 284 285 288 287 287 290 290 292 295 297 298 302 309 304 306 307 302 299 294 305 300 299 300 307 301 304 305 307 310 312 314 314 317 318 319 323 333 337 341 344 345 346 345 344 345 344 343 344 344 346 345 344 344 343 344 345 346 347 346 346 346 346 346 346 345 344 343 343 338 341 343 343 341 342 340 340 339 339 338 336 336 335 336 335 335
305 308 307 307 305 298 290 288 285 283 283 282 282 287 287 287 288 290 292 294 296 296 300 304 303 306 303 299 299 300 295 296 300 297 298 299 301 304 304 307 312 311 314 312 315 316 318 324 331 334 337 340 344 345 346 347 345 344 344 341 346 346 345 343 344 343 342 345 346 347 346 346 346 345 345 344 344 345 344 343 340 339 341 342 340 341 341 340 339 338 338 338 335 335 335 334 334
306 309 307 303 298 293 288 285 282 282 282 281 281 285 287 288 288 290 292 295 296 295 296 300 305 303 301 299 300 294 293 297 298 299 298 301 305 304 304 308 309 309 311 310 313 314 314 324 329 332 334 337 340 343 342 344 346 343 343 344 344 345 344 343 343 342 344 346 347 347 346 346 345 344 344 344 344 344 345 343 342 342 341 342 340 342 342 340 340 339 338 337 337 334 334 334 333
305 302 304 304 295 297 290 284 283 282 284 284 282 285 287 289 288 290 292 295 296 294 295 295 300 300 296 296 299 294 296 290 296 297 298 299 302 304 304 309 306 307 308 309 311 314 313 322 327 330 332 336 338 339 342 341 344 346 343 342 343 344 343 343 342 344 345 346 347 347 346 346 345 344 343 343 344 344 345 344 344 342 341 341 340 341 342 341 340 339 338 337 336 334 334 334 334
307 301 298 297 294 293 284 282 282 282 285 286 286 286 287 289 289 290 293 294 296 295 295 292 298 300 297 297 298 298 298 297 295 296 299 299 302 303 303 307 305 306 306 307 309 312 312 321 324 327 330 333 335 337 339 340 340 344 345 344 343 344 344 343 343 345 345 346 346 346 346 345 344 343 342 341 344 344 344 345 344 343 341 340 340 340 342 341 340 338 338 337 336 335 334 334 335
307 300 295 291 285 286 281 281 282 281 284 286 288 287 288 289 288 291 292 291 291 291 293 293 294 300 299 301 296 297 298 297 296 298 299 298 300 302 303 305 304 305 305 306 307 310 315 318 322 324 327 330 333 335 336 338 339 340 345 345 344 343 344 344 344 343 345 345 345 345 346 345 344 343 341 340 340 343 344 344 344 343 341 340 340 341 342 341 339 338 338 337 336 336 336 336 336
299 296 295 292 283 283 280 280 282 284 286 286 286 291 295 288 288 290 290 291 291 292 291 292 293 294 294 296 296 299 297 296 296 298 297 297 298 301 302 302 303 304 305 306 306 308 309 316 319 321 323 326 328 330 333 334 336 338 340 346 346 345 344 342 342 343 344 344 344 344 345 345 344 343 342 341 341 341 342 343 343 344 343 342 341 342 342 341 339 338 337 338 337 337 338 336 336
295 293 287 286 285 282 279 280 280 284 285 286 286 287 287 288 288 290 289 289 289 291 292 293 293 291 294 295 295 294 293 295 294 293 294 296 298 300 301 301 301 304 303 304 305 307 308 314 317 318 319 322 324 326 328 331 334 336 338 341 344 345 344 344 343 341 339 339 339 340 342 343 343 343 342 342 341 341 342 342 341 343 343 342 342 342 342 341 340 338 338 338 338 337 336 336 335
289 291 291 286 279 279 280 280 281 284 285 285 286 288 288 288 289 288 289 289 290 289 291 292 289 289 293 293 293 296 296 294 292 291 293 295 296 297 298 300 300 303 302 303 305 306 306 307 315 316 317 319 321 322 324 327 330 333 335 338 339 341 344 344 344 343 339 336 340 339 341 342 342 343 343 343 341 342 343 342 341 341 343 343 342 342 342 341 340 339 339 339 338 338 336 335 334
288 285 288 281 279 280 280 281 283 283 283 284 285 287 287 288 287 286 288 286 288 288 289 291 288 291 291 289 293 297 295 293 292 292 293 294 294 296 299 298 299 300 302 302 303 304 305 306 307 313 315 317 317 319 321 323 326 329 331 334 337 340 341 343 344 343 343 342 340 342 342 339 340 342 343 341 340 341 343 343 342 342 342 342 342 342 341 340 340 339 339 339 339 338 336 335 334
289 287 285 282 279 280 281 280 280 287 279 284 284 288 288 287 287 287 287 287 287 287 287 291 292 293 287 288 292 292 292 292 292 292 293 292 293 295 298 297 298 299 299 301 301 303 304 305 306 307 310 314 314 316 318 320 323 327 328 331 334 337 339 339 341 342 343 343 342 343 343 341 341 342 343 341 340 341 341 340 341 343 342 342 342 342 341 340 341 340 339 339 339 337 336 335 334
289 286 285 281 279 278 278 281 279 279 280 283 285 286 286 287 287 288 288 286 286 286 289 292 291 292 288 289 287 290 291 293 292 292 292 292 293 294 296 297 296 296 297 297 298 300 301 302 305 306 307 308 310 313 316 318 320 323 326 327 331 334 336 338 340 342 342 342 342 341 342 342 341 342 342 340 339 339 338 338 340 343 342 342 341 341 340 340 340 339 338 339 339 337 335 335 334
288 287 283 279 278 277 281 278 281 279 280 283 286 285 285 291 288 287 287 286 287 291 292 293 292 288 285 287 286 290 291 292 292 292 291 291 292 292 293 295 294 295 295 295 296 298 299 300 302 303 306 307 309 310 313 314 317 320 322 325 327 330 332 335 337 338 340 339 339 339 340 341 340 340 338 338 338 338 338 337 337 341 342 341 341 341 340 339 340 339 338 339 339 336 335 335 334
289 287 283 280 278 279 280 279 279 278 282 283 286 284 285 286 288 287 288 289 288 289 290 289 292 289 289 289 289 291 291 290 292 291 289 289 290 291 291 292 292 293 294 294 295 296 299 299 300 302 304 305 307 310 312 312 315 318 319 321 323 325 329 332 334 335 335 335 335 336 337 338 339 337 338 337 334 336 338 333 335 337 341 340 341 340 339 338 339 338 338 338 338 337 335 334 333
288 289 282 278 278 278 280 279 279 278 282 283 285 284 284 283 286 288 289 288 286 287 288 290 291 291 289 289 291 291 289 292 292 288 288 288 288 288 289 290 291 291 293 293 294 295 298 298 299 300 302 303 306 309 311 311 313 316 317 318 321 323 327 331 332 332 331 331 330 331 335 335 334 334 335 334 335 334 331 329 332 335 337 340 341 340 340 339 339 338 337 337 338 336 335 334 333
286 281 278 278 278 278 281 281 281 283 283 283 284 284 284 283 285 287 288 286 285 285 286 287 288 291 291 290 291 290 288 287 287 286 286 286 286 286 287 288 289 289 290 292 293 295 297 298 298 299 300 302 305 309 309 310 312 314 314 315 318 321 325 331 333 335 337 335 328 332 334 335 334 334 333 338 332 332 330 327 328 330 333 336 339 340 339 339 339 339 337 337 337 336 332 323 323
282 277 279 278 277 282 283 283 283 283 283 284 283 284 285 285 284 288 285 285 284 285 285 286 286 287 289 290 289 288 287 286 286 286 285 285 285 285 286 287 288 288 289 291 292 294 296 297 298 298 300 301 304 308 308 309 310 312 311 313 316 319 322 328 334 335 334 333 332 333 334 336 335 334 334 334 333 328 332 325 328 329 332 334 335 336 337 338 337 337 337 337 336 333 325 323 321
280 280 279 279 280 284 283 283 285 283 284 285 285 284 285 286 286 287 285 283 282 284 285 285 285 287 288 288 287 287 286 285 285 285 285 285 285 285 286 286 287 288 289 290 292 295 296 297 297 299 300 300 303 306 307 307 310 310 310 311 315 318 319 326 333 333 332 332 331 332 333 335 335 334 335 337 337 333 330 326 324 325 327 328 331 334 334 335 335 336 336 336 333 327 324 323 321
283 281 276 282 282 281 285 283 284 284 284 284 283 284 284 285 285 285 284 283 281 283 284 285 285 286 287 287 285 285 284 284 284 285 284 284 285 286 286 287 287 288 289 292 293 293 295 296 298 298 299 300 302 305 305 305 308 308 309 310 312 316 320 323 332 332 332 331 331 331 332 333 334 334 333 334 335 333 332 330 327 328 328 328 327 330 330 331 332 329 330 329 328 326 324 322 321
282 280 282 284 281 282 285 284 284 283 282 282 281 284 285 286 286 283 284 282 282 285 287 287 286 286 286 286 284 284 283 283 283 284 284 284 284 285 286 287 288 288 290 291 292 293 295 296 298 298 299 300 302 303 304 305 307 306 307 308 311 314 317 321 330 331 331 331 330 331 331 332 333 332 332 333 332 332 332 330 330 330 329 329 330 329 328 328 327 326 326 326 327 327 325 323 322
282 281 282 282 282 283 283 285 284 284 283 283 283 285 286 284 285 283 285 284 286 288 287 286 286 286 284 285 283 283 283 282 283 283 283 284 284 285 286 287 287 287 289 290 292 293 296 296 298 298 298 300 301 302 303 304 304 305 306 307 308 309 313 317 329 331 331 332 331 330 330 331 331 331 331 332 332 333 332 330 329 330 330 331 330 328 327 327 326 325 324 324 323 325 324 323 322
285 281 282 284 284 284 283 285 282 280 284 285 284 286 286 284 284 285 284 285 286 286 286 286 285 285 283 283 283 282 282 282 283 283 284 284 284 285 286 286 287 288 289 290 292 293 295 296 297 298 298 300 300 300 300 303 303 303 305 306 306 308 310 316 325 326 324 323 324 327 330 331 331 331 331 331 332 332 331 331 330 330 330 331 330 328 326 326 325 325 324 322 322 322 323 322 320
284 283 283 285 284 283 282 283 281 283 284 283 285 285 284 284 286 284 285 284 284 287 285 283 282 282 283 283 283 282 282 282 283 283 284 284 284 287 287 287 287 288 288 290 292 292 294 297 297 297 298 299 299 300 299 301 302 302 303 304 304 306 308 312 316 319 320 320 320 322 323 327 327 328 329 330 331 331 331 330 330 330 330 330 330 329 328 326 325 326 325 325 324 323 323 321 317
284 284 283 283 283 283 283 283 282 282 283 283 285 283 282 284 284 285 285 286 286 285 284 282 282 283 282 282 282 282 282 282 282 283 283 284 284 284 285 286 287 287 288 290 292 292 294 296 296 297 298 299 299 300 299 299 300 300 301 302 303 305 305 308 312 315 316 317 317 317 320 322 322 324 327 328 328 329 325 325 325 324 327 326 327 328 329 328 326 326 326 325 324 323 321 319 318
283 283 282 283 283 285 285 283 284 283 284 283 284 283 282 284 285 281 284 285 286 284 282 281 282 283 283 283 282 282 281 281 282 282 283 283 283 283 285 286 286 287 289 290 292 293 295 295 295 297 298 300 300 299 299 298 300 299 300 301 302 303 303 306 309 312 313 314 314 314 316 317 319 321 323 326 327 326 325 324 324 324 325 326 326 326 327 327 327 327 326 324 323 320 319 318 319
283 283 284 284 282 285 284 284 285 285 285 282 284 283 284 283 284 283 284 285 285 284 282 281 281 282 283 283 282 282 281 281 282 282 281 281 282 283 284 285 286 287 288 289 291 293 293 294 295 297 298 299 300 298 299 298 298 299 300 300 300 301 302 304 306 308 309 311 313 313 313 314 315 317 317 319 322 322 321 320 320 320 320 322 324 325 324 324 323 323 324 323 321 320 318 319 319
284 285 283 281 279 281 283 283 285 283 285 284 283 282 279 279 283 284 284 285 282 281 283 281 282 282 282 283 283 282 281 282 282 281 282 282 283 284 284 285 286 287 289 290 291 292 292 294 296 296 298 298 300 297 299 299 299 298 299 299 299 300 301 302 303 304 306 308 309 310 311 312 313 313 314 314 315 316 316 315 315 315 317 318 321 321 320 320 319 320 319 320 320 319 318 317 317
284 283 280 278 278 277 283 284 285 284 285 283 283 276 277 276 279 281 284 284 284 285 283 282 281 281 282 282 283 282 282 281 282 282 282 283 283 284 284 285 288 287 289 290 290 291 294 295 297 297 298 297 299 298 298 299 299 299 299 299 299 299 300 300 301 302 304 305 306 306 307 308 310 311 312 312 312 313 313 312 313 313 314 315 316 315 315 315 315 316 316 315 314 314 313 314 315
282 281 279 277 276 278 282 283 284 284 284 284 283 278 278 280 282 282 284 284 285 283 283 283 281 282 282 283 283 282 282 281 282 282 282 283 283 284 284 285 286 287 289 289 289 290 292 294 296 296 296 296 298 298 297 298 298 298 298 298 298 297 298 298 299 300 301 303 303 303 304 305 306 307 308 309 309 309 310 310 310 311 312 312 312 312 311 310 310 310 313 312 311 310 310 311 313
279 278 277 276 278 278 281 282 282 281 283 283 281 276 279 281 281 282 284 284 284 284 283 282 281 282 282 283 284 283 283 282 282 282 282 283 283 283 284 284 286 286 287 289 289 290 293 294 295 295 294 295 297 298 297 299 298 298 298 298 297 297 297 297 297 298 299 301 301 301 302 302 303 304 305 306 306 305 306 306 307 310 310 309 308 308 309 307 306 306 306 311 309 308 309 310 309
279 279 276 276 277 278 276 280 281 283 282 281 284 279 279 280 282 285 284 283 283 283 281 280 281 282 283 284 284 283 282 282 282 281 282 283 283 283 284 284 286 286 286 287 289 289 292 293 293 294 294 294 296 297 297 297 298 297 297 297 297 296 296 296 297 297 298 298 299 300 300 300 300 300 302 302 302 302 302 303 304 306 307 307 306 305 305 306 305 304 303 304 308 308 308 305 303
276 278 277 277 277 277 276 280 279 283 282 280 280 279 280 281 283 283 283 282 283 283 282 282 282 282 283 283 283 281 280 280 281 282 282 283 284 284 284 287 286 286 286 287 288 288 291 291 293 294 295 296 295 297 296 296 297 297 296 296 296 295 296 296 296 296 296 297 297 298 299 299 299 299 299 300 300 300 300 300 300 302 304 304 303 302 301 303 303 303 301 301 304 307 307 303 301
277 276 276 276 277 277 277 276 280 282 281 279 280 279 280 281 282 282 282 281 282 282 282 282 282 283 283 283 282 280 279 279 281 282 282 283 283 283 284 284 285 286 286 286 287 288 289 290 294 294 292 294 296 296 297 297 297 297 296 295 294 294 295 295 295 295 295 296 296 296 297 297 298 297 298 298 298 298 298 298 298 299 300 300 300 299 299 299 300 301 300 300 301 303 304 303 301
276 277 276 275 276 275 276 278 278 281 280 279 279 278 279 281 282 283 283 281 281 281 282 282 282 282 282 282 281 280 280 280 281 282 283 283 283 283 283 283 284 285 285 287 287 286 288 290 291 293 292 291 295 297 296 295 295 294 293 294 293 293 294 294 294 294 295 294 295 296 296 296 296 297 296 296 297 296 296 296 297 297 298 298 297 296 297 297 297 297 299 300 299 299 300 301 300
277 277 276 275 275 276 277 277 278 280 280 278 278 278 277 279 280 281 282 282 282 282 282 282 282 281 282 283 282 281 281 281 281 282 282 282 283 283 283 282 283 283 284 286 286 286 287 288 290 290 291 291 291 294 293 292 291 292 292 292 291 292 293 293 293 293 294 294 294 295 295 295 295 295 296 296 295 295 295 295 295 295 296 296 296 295 296 296 297 297 296 297 298 296 294 294 294
277 276 276 275 276 276 279 278 277 281 280 279 278 277 278 279 279 281 281 282 282 282 281 282 283 282 283 283 282 283 283 282 282 282 282 282 282 282 282 282 284 282 284 285 285 286 286 288 289 289 291 291 290 290 293 292 291 292 292 291 293 292 291 291 291 292 292 293 293 294 294 294 294 294 296 295 295 294 294 294 294 294 295 295 295 294 294 295 294 295 295 292 292 291 289 289 290
275 277 276 275 276 277 277 278 278 280 280 279 277 277 279 280 280 280 280 281 282 281 282 283 282 283 283 283 283 283 283 283 283 282 281 281 281 282 281 281 281 281 282 283 284 285 286 287 287 288 290 290 292 293 293 291 293 292 292 292 292 292 293 293 292 293 293 292 292 292 293 293 293 293 294 294 293 294 294 294 293 294 294 295 294 293 293 293 294 294 294 293 290 290 290 290 290
276 277 276 275 276 276 274 276 277 280 279 278 277 276 277 278 278 279 279 282 283 282 282 282 282 283 283 284 283 283 282 283 283 282 282 281 280 281 281 281 282 281 282 282 283 284 285 287 285 287 288 289 289 292 293 292 292 292 292 292 292 292 291 293 292 292 292 291 290 291 291 292 292 292 293 293 293 293 293 293 293 293 293 292 292 291 291 291 292 294 295 295 294 291 288 288 290
275 276 273 274 275 275 274 276 277 278 279 279 277 275 275 277 277 280 281 280 280 281 281 281 281 281 282 282 283 282 282 282 282 282 282 281 281 281 281 281 281 281 281 282 283 284 285 284 285 285 287 289 289 290 290 290 290 288 290 290 289 288 289 289 288 286 287 289 290 289 288 289 290 291 291 291 292 290 291 291 291 290 290 290 290 289 289 289 291 292 293 293 293 291 288 289 289
274 274 275 276 276 276 276 276 276 273 275 277 277 272 272 274 276 278 279 278 281 280 280 281 282 283 282 283 284 284 284 282 282 282 282 281 281 281 280 280 280 280 281 282 282 283 282 283 284 284 285 287 288 289 289 290 287 286 285 285 285 285 283 283 283 283 284 284 285 286 287 288 288 288 289 289 290 290 289 289 289 288 289 289 289 288 288 289 288 288 289 289 289 289 288 286 285
272 278 277 278 276 276 275 275 276 273 273 276 274 273 268 272 277 278 277 276 278 280 280 281 282 283 283 284 284 284 284 285 284 282 281 280 280 280 280 280 280 280 282 281 282 282 282 283 283 283 284 286 287 288 288 290 287 286 285 284 284 283 283 283 284 285 285 285 285 285 285 286 286 287 287 288 288 288 287 287 287 287 287 288 289 287 287 287 287 288 288 287 288 289 288 285 285
275 278 277 277 277 275 274 274 272 274 273 273 272 273 267 269 274 277 277 275 277 279 281 282 282 282 283 284 285 284 285 284 283 283 283 281 280 279 280 280 280 281 280 281 281 282 282 281 282 283 283 286 285 286 287 288 286 285 285 285 286 282 282 282 283 284 284 286 284 284 284 285 285 286 286 286 286 287 287 286 286 286 286 287 287 285 285 286 286 287 287 286 287 287 286 285 284
277 278 277 277 276 275 274 273 274 274 274 268 275 270 271 265 273 276 276 278 277 278 279 280 281 282 282 283 285 285 285 284 283 282 283 282 281 280 280 280 280 280 280 280 281 281 281 280 282 282 282 282 283 284 287 285 288 285 284 284 283 285 284 283 283 283 283 283 282 283 283 284 284 285 285 285 285 286 287 286 285 285 285 285 286 285 284 284 284 284 284 284 284 284 285 285 283
279 278 279 278 277 276 276 274 275 271 268 267 270 270 268 269 273 276 276 276 276 277 279 279 280 281 281 282 284 285 285 285 283 281 281 281 281 280 280 279 280 280 280 281 282 280 280 279 281 281 281 281 283 282 282 283 283 285 282 282 282 281 283 281 280 280 280 281 281 281 281 282 282 283 284 284 285 285 285 285 285 285 285 286 286 284 283 283 283 283 283 283 283 282 283 283 282
279 278 277 277 275 272 270 270 271 268 265 268 272 273 272 265 271 273 275 276 277 276 277 278 280 281 282 282 283 284 284 284 284 283 283 282 281 281 280 279 280 280 279 280 280 279 279 279 279 279 280 280 281 281 281 281 281 282 281 281 280 280 280 281 281 280 279 280 280 280 280 280 281 282 282 283 284 284 285 286 284 284 285 286 284 283 283 283 283 283 283 283 282 282 282 282 282
278 275 275 276 276 272 270 264 263 267 262 265 273 274 273 267 272 277 276 275 276 277 277 278 279 281 282 282 283 283 283 283 283 283 284 284 284 284 280 280 279 279 279 280 279 279 280 280 279 280 280 280 280 281 281 281 281 280 280 280 280 279 279 279 278 278 279 278 278 279 279 280 280 281 281 281 282 283 284 283 284 284 285 283 282 282 283 282 283 283 283 282 282 282 282 282 281
279 275 275 272 266 265 272 265 268 259 268 275 272 272 271 271 275 278 278 277 276 276 278 279 279 280 281 282 283 283 283 282 282 283 283 283 283 283 283 283 281 280 280 279 280 279 279 280 279 280 280 279 279 279 280 280 280 280 280 280 281 282 279 279 278 278 278 278 278 278 279 279 279 280 280 280 280 281 283 283 283 283 283 284 283 283 282 282 282 282 282 281 281 281 281 281 281
278 275 269 264 263 260 262 256 257 261 269 272 272 272 272 275 277 277 277 278 278 277 278 279 279 280 281 281 282 282 282 282 282 282 282 283 283 283 283 282 282 281 280 280 279 281 280 280 279 279 279 279 279 280 279 280 280 280 280 280 279 280 279 279 278 278 278 278 278 278 278 278 279 279 279 279 280 281 281 282 282 282 283 283 284 283 283 283 282 281 281 281 281 281 281 281 281
275 275 274 269 265 267 264 261 268 266 269 271 270 269 266 273 276 278 276 278 277 276 277 277 278 279 279 279 280 281 282 283 282 282 283 283 284 283 283 283 282 282 281 281 279 279 279 279 279 281 280 279 279 279 279 281 281 280 280 280 281 281 279 278 279 281 278 278 278 278 278 278 279 278 279 280 280 280 281 282 282 280 281 281 282 282 283 282 282 282 282 282 282 281 281 282 280
276 275 275 273 269 264 269 261 262 260 262 267 264 270 271 276 279 280 277 276 278 278 277 278 278 279 279 281 283 283 283 283 283 282 283 284 284 283 283 283 283 282 282 281 280 280 279 280 279 279 279 279 279 283 281 279 279 280 280 281 280 284 285 282 283 282 279 279 279 279 279 278 279 279 280 279 279 279 279 279 280 279 280 281 281 281 281 281 281 281 280 281 281 283 280 279 279
276 275 269 272 275 269 262 264 262 260 260 264 262 273 276 278 278 278 276 278 281 276 276 277 278 279 280 283 282 282 283 283 283 283 283 283 283 284 283 283 283 283 283 282 282 281 280 280 280 280 279 278 278 281 280 279 278 280 280 280 280 282 280 280 280 279 279 280 280 279 279 279 279 279 281 281 279 279 279 279 279 279 279 279 279 280 280 279 280 280 280 280 280 280 281 279 279
275 272 275 276 276 272 269 265 257 259 262 264 266 267 271 273 271 276 279 277 279 277 276 276 277 278 281 282 282 282 282 283 282 282 282 282 282 283 284 283 283 283 283 283 283 281 280 280 280 280 280 280 279 279 280 279 279 280 279 280 280 280 280 279 279 279 278 280 279 280 280 281 280 281 282 283 279 280 281 283 278 279 278 279 279 279 278 278 279 279 279 279 279 279 279 280 281
279 278 275 277 266 270 265 261 263 264 259 263 267 268 269 271 275 275 277 277 279 278 277 277 278 279 280 281 282 282 283 282 283 283 283 283 283 283 283 283 284 283 283 282 282 282 280 280 280 279 280 280 280 279 279 281 279 281 281 281 280 280 279 279 279 280 279 279 279 279 279 279 279 280 283 281 279 280 280 280 278 279 279 279 279 279 280 279 278 277 280 278 279 277 278 279 279
275 278 276 272 271 267 265 265 263 265 264 264 266 265 268 274 274 276 278 276 277 278 277 277 278 278 279 280 281 282 282 282 282 282 282 282 282 282 283 283 283 284 284 284 282 281 280 280 280 280 280 279 279 279 279 280 280 280 281 280 280 280 280 280 279 279 279 279 279 279 279 279 280 281 280 279 279 279 280 279 279 279 279 279 279 279 279 279 278 278 279 279 279 278 279 279 278
274 273 270 272 270 271 272 268 269 267 259 257 259 265 268 274 276 278 279 278 278 278 279 279 278 279 280 281 281 281 282 282 282 282 282 282 282 282 283 282 282 282 282 282 282 282 282 280 280 280 280 280 279 280 278 280 279 279 280 280 280 280 280 280 280 279 280 279 279 280 279 280 280 280 280 279 279 279 278 279 278 280 279 278 279 279 279 278 278 279 278 279 278 278 278 278 279
276 274 275 275 272 267 267 266 264 261 265 258 258 268 272 278 279 279 279 279 278 277 278 278 278 279 280 281 282 281 281 282 282 282 282 282 282 282 282 282 281 281 282 282 282 281 281 281 281 280 279 280 280 280 280 280 279 280 279 280 280 279 280 279 280 279 280 280 279 280 280 279 279 280 280 280 280 279 279 279 278 278 279 279 279 279 278 279 279 279 278 280 280 278 278 278 278
Wind_Speed
8 6 6 4 1 0 2 7 0 3 5 3 3 4 1 3 2 3 5 8 6 3 6 5 6 10 9 8 14 12 9 10 5 3 3 5 9 15 10 19 21 17 15 13 12 12 15 19 25 25 18 7 8 10 9 7 5 8 5 6 5 5 3 4 5 10 9 9 8 10 11 11 7 6 8 9 12 11 7 7 3 6 7 6 11 11 11 10 10 9 9 9 9 9 9 10 10
5 6 4 1 1 1 0 2 5 4 6 4 3 1 4 6 3 4 6 4 1 6 10 5 3 8 13 13 13 11 12 9 5 2 7 7 15 7 14 18 19 19 16 14 12 13 12 15 25 26 19 17 10 11 12 9 2 5 6 7 6 5 4 2 2 4 10 11 10 11 11 9 9 8 7 7 9 10 10 9 2 2 5 3 9 10 10 10 9 9 9 9 9 9 9 9 9
4 6 4 2 3 5 3 6 1 1 6 4 1 2 3 5 4 7 4 5 5 8 8 3 1 5 3 4 6 6 3 5 5 5 5 8 14 8 18 19 17 17 13 12 13 12 11 14 24 24 23 18 16 12 6 8 5 5 4 4 7 7 5 5 4 6 7 8 9 9 8 8 9 9 8 7 8 9 8 10 11 5 6 6 10 10 10 10 9 9 8 8 8 9 8 9 9
2 1 1 1 0 6 5 6 5 4 6 3 2 2 4 3 6 5 7 6 5 7 3 4 4 3 2 8 4 6 7 2 6 10 6 9 7 13 16 19 18 14 11 10 12 12 9 15 23 24 24 24 19 16 12 7 6 6 8 10 10 9 7 6 6 6 9 8 7 8 8 8 8 8 8 8 6 8 8 9 7 8 7 5 7 10 10 10 10 9 8 7 7 8 8 8 9
2 2 1 4 6 5 5 3 4 2 5 0 2 2 4 3 7 7 7 6 3 9 8 4 2 3 5 6 4 3 5 8 4 9 6 8 10 12 15 15 15 14 13 12 11 12 12 21 22 21 23 23 24 20 14 13 8 7 8 10 12 10 8 8 7 7 9 8 9 9 9 8 7 6 7 7 7 7 8 9 9 7 4 3 7 9 10 11 10 9 8 7 7 7 7 8 8
2 6 8 7 4 3 6 7 7 8 1 1 2 2 4 5 6 8 8 6 1 5 7 7 2 1 4 4 3 4 5 5 9 6 9 8 14 14 15 12 12 13 14 13 11 10 12 21 21 22 22 22 22 23 19 15 13 11 12 13 11 10 9 6 6 10 11 10 9 9 9 9 9 7 7 8 8 7 7 8 10 9 7 4 7 8 10 10 10 9 8 7 6 6 6 7 7
0 5 7 8 6 6 6 7 6 4 2 2 0 2 4 6 6 7 9 4 1 1 10 4 2 1 4 1 5 6 8 5 4 7 8 12 12 13 14 11 12 13 15 13 12 11 14 21 23 22 21 21 20 21 22 22 17 12 11 12 10 11 10 11 14 13 10 8 9 9 9 9 8 8 8 8 9 8 8 8 10 10 7 5 3 8 9 9 10 9 8 7 6 6 5 6 6
1 5 3 9 3 6 6 3 5 0 2 3 0 1 4 6 7 4 6 6 6 5 10 7 4 1 2 3 3 4 6 6 5 7 8 10 11 12 12 10 11 12 13 13 12 11 17 21 23 22 22 21 22 22 21 21 22 19 11 10 11 12 11 11 12 11 8 7 9 9 8 8 8 8 8 8 8 9 8 8 9 10 9 9 9 8 9 9 10 9 8 7 6 6 5 5 6
7 9 1 9 8 4 5 4 2 0 0 2 3 2 4 3 3 3 4 3 3 2 7 10 9 2 2 4 3 1 1 5 7 7 8 9 10 11 9 12 11 10 11 12 12 11 12 20 21 22 22 21 21 21 20 19 20 22 19 11 11 12 12 12 10 9 9 9 9 9 8 8 9 9 9 9 8 9 9 9 9 10 10 10 11 10 10 10 10 9 8 7 7 6 6 5 5
4 4 2 6 4 7 3 1 4 0 1 0 1 5 4 5 2 5 3 5 6 5 5 7 2 4 4 3 1 1 2 6 8 9 11 12 10 8 9 11 11 11 11 12 11 10 10 18 21 21 22 22 21 21 20 20 19 20 21 16 13 11 11 11 11 11 8 6 11 11 8 8 9 9 9 9 8 9 9 9 10 11 11 11 11 10 10 10 10 10 9 8 7 7 6 5 6
3 6 2 8 6 5 4 3 2 1 1 4 2 3 4 4 1 2 5 1 2 3 5 8 4 6 2 0 1 2 1 7 13 15 15 13 11 10 9 9 10 10 10 12 12 10 11 12 22 19 21 22 22 21 20 19 19 19 19 20 14 13 11 11 11 11 11 11 13 9 6 7 8 9 8 7 6 7 8 9 10 10 10 11 11 10 10 10 10 10 10 9 8 8 6 6 5
4 3 5 7 5 5 2 6 2 0 2 3 3 5 4 4 1 4 6 11 9 6 4 7 3 2 2 2 0 1 6 11 11 10 13 11 10 10 8 7 9 10 9 10 11 10 10 11 11 16 19 20 21 21 20 19 19 18 18 17 18 14 13 12 11 10 9 10 9 6 5 6 9 8 6 5 4 5 8 9 10 11 11 11 11 11 10 10 10 10 10 9 8 8 7 6 5
7 2 8 8 2 3 1 5 1 1 3 4 2 5 3 4 5 3 1 1 5 6 5 6 4 1 3 4 2 3 8 8 10 11 12 11 10 9 7 7 8 8 8 10 10 11 10 9 11 11 15 20 17 20 20 18 19 19 18 18 17 15 14 14 11 10 9 8 6 6 6 9 10 8 6 6 5 4 7 8 8 11 12 11 11 11 10 11 11 11 9 8 9 8 6 6 5
6 3 5 5 0 2 2 1 1 3 3 3 1 4 4 1 1 2 0 3 7 5 4 6 1 0 1 3 5 5 5 7 10 10 9 12 9 9 8 7 8 8 7 8 10 11 11 9 9 10 11 12 12 15 18 19 19 20 19 18 18 16 16 14 11 9 8 8 6 6 6 8 7 6 6 5 6 5 6 7 8 9 12 11 11 10 10 11 12 11 9 9 10 9 7 6 6
5 1 7 6 2 2 0 3 1 3 1 3 3 5 4 1 0 1 5 3 2 0 7 1 1 3 4 5 7 6 9 11 10 9 9 9 10 9 9 7 9 8 8 8 8 10 12 11 11 9 10 10 13 12 10 14 20 19 20 17 17 17 18 16 9 6 7 4 4 6 6 8 7 7 4 5 5 6 6 7 8 8 11 11 12 12 12 12 12 10 9 9 10 10 8 7 6
4 6 5 5 2 4 2 3 1 4 1 3 5 5 0 1 1 2 1 0 1 3 3 3 5 2 1 1 5 5 9 10 9 8 7 9 9 8 8 8 8 8 7 9 9 10 10 11 11 11 11 11 11 11 10 12 15 19 20 17 16 15 16 16 11 8 5 6 7 7 8 6 6 6 7 6 7 6 5 4 6 8 10 12 13 13 12 12 11 9 9 9 10 10 9 8 7
1 6 8 5 4 4 2 2 1 2 3 3 5 6 4 3 2 0 2 3 3 2 3 0 0 1 0 2 3 4 7 7 8 8 8 9 8 8 9 10 11 9 8 8 9 11 11 12 12 11 12 14 12 11 9 10 11 17 15 17 17 14 15 14 12 8 8 6 6 6 6 5 4 4 4 4 6 3 5 7 8 9 9 10 12 14 13 12 11 11 10 10 11 10 9 9 8
6 7 4 8 1 5 0 1 0 0 0 3 5 3 4 5 7 3 2 2 3 2 2 4 2 0 0 2 1 3 5 7 7 10 11 11 8 10 10 9 10 12 12 11 9 11 11 11 12 11 10 14 13 10 9 9 9 12 11 11 10 11 11 11 9 8 7 4 5 5 3 3 3 3 4 6 4 4 4 7 7 8 7 10 11 12 11 10 12 11 11 11 11 10 10 5 4
9 4 6 6 1 0 2 1 1 1 1 1 2 1 2 1 1 4 4 7 7 4 3 2 3 3 6 6 7 7 7 8 8 8 10 11 11 13 11 9 10 10 13 13 11 12 10 10 12 13 12 12 13 12 9 9 10 9 10 11 10 12 10 10 8 7 4 5 4 4 4 3 4 4 4 4 5 6 5 7 7 9 10 9 5 9 9 9 8 10 11 11 11 11 6 4 2
3 7 8 2 4 1 3 2 1 3 2 0 1 1 1 2 0 3 2 5 5 7 8 6 4 10 9 7 7 7 6 6 6 7 8 8 8 8 10 11 11 10 10 9 11 9 10 11 12 11 13 13 12 10 10 9 8 9 9 9 9 8 9 8 7 6 4 4 5 3 3 3 3 3 5 9 9 5 5 6 8 6 4 6 8 9 10 10 10 9 9 10 9 4 4 4 3
2 8 4 4 4 3 1 3 2 1 2 1 1 1 1 1 1 1 1 3 3 3 1 1 7 8 8 7 7 5 7 11 12 11 13 14 12 6 5 6 7 9 7 8 9 11 11 11 11 12 12 11 13 11 12 10 10 8 9 9 9 9 8 8 6 6 5 4 4 3 4 4 3 3 3 4 5 4 4 4 4 4 5 6 9 4 3 5 4 3 5 5 4 5 5 4 2
5 3 2 6 2 4 3 2 2 2 1 2 0 3 1 1 0 1 2 2 3 2 3 3 3 4 4 6 8 4 10 11 12 14 14 13 12 12 12 12 9 4 5 7 11 11 12 11 11 11 11 11 11 11 10 11 12 9 9 10 10 8 9 8 7 5 3 4 3 3 4 4 4 4 3 5 4 4 5 4 4 4 4 4 4 3 5 6 5 5 5 4 4 5 4 3 3
10 2 1 1 2 3 1 0 2 1 1 2 1 1 0 1 1 1 1 2 2 1 2 2 1 2 3 2 4 9 10 10 9 9 10 11 13 14 13 10 9 12 11 9 8 8 9 11 11 12 11 11 12 12 11 9 9 9 8 9 11 10 9 9 8 5 3 2 3 3 3 4 4 5 6 6 7 4 5 5 5 4 5 5 4 5 5 4 4 5 5 4 4 4 4 4 3
8 4 1 2 0 1 1 1 3 2 5 2 1 1 1 1 3 1 1 4 5 2 2 0 1 2 2 7 7 6 6 5 6 5 5 7 7 9 9 10 10 9 8 9 9 9 9 11 11 12 11 12 10 10 11 10 9 9 8 10 9 11 10 9 6 3 4 4 4 3 1 4 6 6 7 6 6 4 5 5 5 5 5 4 4 2 4 4 4 4 5 4 4 4 5 4 4
8 5 1 0 1 3 3 2 5 3 1 2 2 3 5 1 0 2 4 3 2 2 3 5 4 5 7 7 7 7 9 9 10 9 7 7 8 8 7 7 7 8 10 11 9 9 10 10 11 11 11 11 10 9 10 10 9 9 10 7 8 11 9 9 8 4 2 3 4 3 4 2 2 2 5 6 5 5 5 5 5 6 5 5 6 4 3 5 4 4 4 4 4 4 4 4 3
4 2 1 1 2 4 5 4 6 5 2 3 6 6 4 2 4 1 3 2 3 2 4 7 5 7 6 5 6 6 7 8 8 10 10 8 7 9 10 9 9 9 9 9 9 9 9 9 10 11 11 11 11 12 9 10 9 9 10 9 8 9 9 10 9 5 3 3 5 4 4 4 4 3 4 5 5 6 2 1 2 1 3 2 4 5 5 4 4 4 4 4 4 4 3 3 5
2 3 4 5 3 4 6 5 8 5 1 2 5 6 4 5 3 2 2 2 5 3 4 5 6 6 6 6 7 5 6 7 7 7 9 8 8 8 10 9 8 10 10 10 9 8 8 9 10 9 9 12 9 11 12 10 10 10 9 9 7 8 10 10 7 6 5 2 5 6 4 5 4 4 5 3 4 2 4 3 2 3 2 1 2 4 2 3 4 5 5 4 4 4 3 3 5
5 4 4 6 4 6 6 6 11 5 1 2 2 3 1 4 1 2 4 5 4 1 3 5 5 5 6 7 6 5 4 5 5 5 8 10 9 9 10 9 11 11 11 12 10 9 10 10 9 9 9 10 10 9 12 10 10 9 10 8 8 9 9 8 7 6 6 4 5 5 5 5 5 5 6 7 3 5 4 5 5 5 4 3 3 4 4 4 3 1 3 4 4 5 5 4 4
1 1 1 3 5 6 9 5 8 1 1 3 0 1 2 3 1 3 5 3 3 1 2 4 5 5 5 5 5 5 5 6 5 4 5 6 6 6 9 8 8 9 7 8 10 10 11 10 9 9 9 11 9 11 10 9 9 9 8 8 8 7 7 8 7 7 7 6 6 6 5 6 7 7 6 6 7 4 3 5 6 5 4 4 5 6 6 5 4 3 4 5 5 6 6 6 6
0 5 2 2 7 4 9 2 10 3 0 5 2 2 6 4 4 5 6 2 1 2 4 4 4 4 5 5 5 6 6 5 5 5 5 6 6 6 7 9 8 6 8 7 9 10 9 8 8 8 10 12 11 10 11 8 9 8 8 8 8 8 7 8 8 7 7 8 6 8 7 7 6 6 5 5 6 5 4 6 5 5 5 6 6 5 5 4 5 5 5 7 5 6 7 5 6
1 3 5 3 5 4 6 4 11 8 2 8 1 2 5 4 5 2 5 1 0 2 4 5 4 5 5 5 5 5 7 3 5 6 6 5 5 5 6 7 7 7 7 7 9 9 10 10 10 7 11 11 11 11 12 10 9 8 7 8 8 8 8 9 8 8 8 6 7 8 8 7 8 7 6 5 5 7 7 7 7 5 5 6 7 6 6 5 6 6 4 7 7 7 7 6 6
4 2 5 3 7 6 6 4 7 10 5 8 2 4 2 5 4 5 4 2 0 2 5 5 5 5 6 5 5 6 6 6 6 6 6 5 5 6 6 7 6 6 7 8 8 9 9 10 10 9 11 13 11 12 10 9 9 7 6 8 7 9 8 9 9 8 7 6 7 8 8 7 7 7 7 6 6 9 7 7 8 6 7 6 7 7 7 7 6 6 6 4 8 7 8 8 8
6 6 0 3 3 5 3 1 3 5 4 3 8 2 3 2 4 7 5 2 1 2 4 5 6 6 5 5 5 5 6 7 6 5 6 6 6 5 6 5 6 6 6 8 9 10 10 10 10 11 12 11 12 14 10 9 7 6 7 7 8 9 9 9 8 8 8 8 9 8 8 9 10 8 9 7 7 8 8 7 6 7 7 7 8 7 8 6 6 7 7 7 5 7 10 12 9
4 4 2 0 2 5 2 6 2 7 5 4 7 2 1 6 8 7 6 3 0 1 4 5 5 4 5 5 5 5 5 6 7 6 7 6 6 7 6 6 6 6 5 6 7 8 9 11 11 12 12 13 12 10 9 8 7 6 6 6 8 10 10 8 7 9 9 9 9 9 7 7 9 10 9 9 6 8 8 8 8 8 7 6 7 8 7 6 7 7 8 7 5 7 9 10 10
4 6 5 4 2 2 4 4 6 13 4 4 7 1 5 6 6 6 5 4 0 3 4 5 6 6 6 6 5 5 5 6 7 5 6 7 7 6 5 5 5 6 6 6 7 7 6 8 8 8 11 11 9 10 7 6 7 6 5 6 10 11 10 8 8 10 9 8 10 8 7 9 10 10 11 11 7 8 9 9 9 9 7 7 8 8 8 8 8 8 8 8 9 8 8 9 10
3 3 1 1 5 4 4 2 2 7 8 7 7 2 8 10 8 7 8 4 1 4 4 4 5 5 5 5 5 5 4 7 6 5 6 6 6 6 5 5 5 6 6 7 8 8 9 8 8 8 7 8 9 5 5 6 6 6 7 7 12 11 8 7 9 10 9 9 10 8 9 9 10 10 10 9 6 8 10 9 9 8 7 8 9 9 7 7 7 7 7 8 11 10 9 7 7
1 2 2 3 3 5 3 3 2 4 2 1 4 6 3 6 5 6 6 6 3 4 5 5 5 5 6 6 6 6 6 5 5 7 6 5 7 6 5 4 5 6 5 7 8 9 9 8 8 10 8 7 8 8 6 6 7 7 8 11 10 8 7 8 10 9 5 6 8 9 9 9 10 9 8 8 10 11 10 9 10 9 8 9 8 8 6 7 6 6 6 5 8 10 7 6 4
2 2 3 1 0 6 1 1 2 6 1 3 4 4 3 4 4 5 7 3 4 4 5 5 6 5 5 5 7 7 7 5 5 7 7 6 6 8 7 5 5 9 9 7 9 9 8 8 7 7 7 7 8 8 7 5 6 6 5 6 4 5 6 7 6 4 6 10 9 8 9 10 11 10 8 10 11 11 10 9 10 8 7 7 7 7 8 7 7 6 5 9 7 8 6 6 5
0 1 2 1 5 4 4 1 2 5 1 5 5 5 3 5 5 6 3 3 5 3 2 5 5 8 7 6 5 7 8 9 7 5 6 6 7 7 6 5 4 3 5 6 5 6 9 9 8 8 7 7 5 6 6 6 5 4 5 4 3 1 3 4 4 5 7 8 8 9 9 10 10 9 10 10 10 9 8 8 8 7 7 5 6 8 8 9 7 8 7 7 7 6 6 7 8
2 5 5 4 2 5 2 2 5 9 3 4 4 2 3 6 3 3 2 2 4 5 4 7 5 7 8 7 6 8 8 8 8 6 7 7 6 6 5 6 6 5 5 6 6 5 4 6 7 8 7 7 7 8 7 6 6 6 4 1 2 3 3 2 4 5 6 8 9 8 9 9 9 9 8 8 7 8 7 8 8 6 6 6 7 8 8 9 8 8 7 6 3 6 6 8 8
1 1 2 1 3 2 3 5 6 5 0 0 1 2 3 5 5 7 5 3 3 5 7 4 3 3 6 8 7 5 7 6 7 8 7 6 7 6 6 6 5 5 5 5 6 6 4 4 5 6 6 7 7 8 8 8 7 7 5 4 4 4 4 4 3 7 8 7 8 11 10 9 9 8 8 8 8 9 9 8 8 7 7 7 6 7 8 8 8 7 7 7 7 7 8 5 9
4 3 1 1 1 6 5 4 6 3 1 7 5 1 1 4 3 3 4 8 9 5 6 6 7 7 5 6 7 7 5 4 6 7 6 6 6 7 6 6 5 5 5 4 4 4 5 6 5 6 6 6 7 7 8 6 6 6 6 6 6 5 7 8 10 8 8 8 8 6 8 9 9 9 7 9 9 7 9 9 9 6 5 5 5 5 5 7 8 9 7 6 9 8 9 6 6
2 5 3 2 3 3 3 4 0 2 3 4 2 2 2 2 2 4 4 5 6 5 5 6 6 7 6 6 6 7 6 9 5 5 5 5 5 5 6 4 4 4 4 4 4 4 4 5 5 4 5 5 5 6 6 5 6 6 7 6 5 6 4 4 4 5 4 4 4 7 7 8 9 9 9 9 9 8 8 8 8 7 7 5 5 7 8 7 6 7 6 7 6 5 5 9 6
1 0 2 4 1 1 1 1 1 1 1 2 4 3 2 2 3 2 5 3 4 6 8 8 7 7 7 6 6 6 7 5 6 8 8 4 5 4 5 5 4 5 4 3 4 4 5 5 5 5 4 4 4 5 5 5 5 5 5 5 5 5 5 4 5 5 4 4 7 7 6 7 8 8 8 9 9 8 8 8 6 6 8 8 6 7 8 7 7 6 7 6 6 5 5 8 6
2 0 3 2 1 1 4 3 2 1 1 2 7 3 1 2 5 4 2 5 8 5 7 7 8 8 6 8 8 8 7 6 4 7 8 8 7 5 5 6 5 4 4 3 3 4 4 3 3 4 5 4 5 5 4 6 4 4 3 3 4 3 3 3 3 4 5 6 9 8 8 8 8 9 9 9 9 8 7 7 8 9 9 8 7 8 8 7 8 7 7 8 7 7 6 5 7
1 2 4 3 4 5 3 2 3 1 3 4 3 4 1 6 5 7 3 2 5 4 7 7 7 7 7 6 8 9 8 7 6 5 7 9 8 7 5 5 6 6 4 3 3 2 3 3 4 4 4 5 4 5 5 5 5 4 4 3 3 3 3 4 4 5 5 5 8 7 7 8 7 8 8 9 9 8 8 7 7 8 7 7 6 7 7 8 8 8 7 7 6 8 6 6 7
0 4 2 2 4 3 3 4 2 2 1 3 2 1 1 2 3 1 1 2 4 4 6 5 7 8 8 7 7 7 7 7 7 9 9 7 6 7 5 6 7 6 4 2 3 3 2 2 3 3 3 3 3 4 4 4 3 4 3 3 3 2 2 2 4 5 5 5 7 6 6 5 5 6 6 7 8 7 8 7 7 7 7 7 7 8 8 7 7 7 7 7 8 8 7 8 8
2 1 1 3 0 3 1 4 2 2 3 3 3 1 0 0 4 2 6 3 2 4 4 6 6 8 8 7 8 7 6 7 8 7 9 10 12 8 3 6 5 6 4 4 4 3 2 1 1 1 2 3 3 2 3 3 3 3 2 2 2 1 2 2 3 4 4 4 4 5 3 5 5 5 5 6 6 6 6 7 6 7 8 7 8 6 6 6 6 6 6 6 6 6 5 7 6
5 2 4 3 3 6 1 9 2 0 0 0 2 1 1 5 7 3 4 4 3 5 6 5 5 7 8 8 8 7 6 6 6 7 7 8 7 9 10 9 6 4 4 5 5 4 3 2 1 1 2 2 2 2 2 1 2 2 1 1 0 0 1 2 2 3 1 3 2 4 4 5 4 6 6 7 5 5 5 6 6 6 6 6 6 7 6 6 5 6 6 6 6 6 5 6 7
10 8 5 5 4 4 1 3 3 4 5 2 1 1 2 3 5 4 3 4 4 5 7 6 6 7 7 8 8 8 7 6 5 5 5 6 6 7 7 7 7 7 5 5 5 4 4 3 3 3 4 2 2 1 1 1 1 1 0 0 0 1 1 1 1 2 1 1 2 3 3 4 5 4 4 5 3 4 5 5 5 6 6 5 5 6 5 5 5 6 5 6 6 5 6 7 7
2 2 1 3 4 1 2 1 2 2 6 7 3 1 2 5 2 2 4 4 5 5 5 5 7 7 6 8 7 5 6 7 5 5 5 6 7 6 7 7 7 6 6 5 4 4 4 4 4 4 4 4 2 3 1 1 0 0 0 0 0 1 2 2 1 1 1 2 2 3 2 2 5 2 4 2 3 4 4 4 4 5 5 5 5 5 5 5 4 5 5 5 5 4 5 5 5
1 2 2 5 1 2 0 1 1 2 5 7 2 2 3 4 1 3 2 5 4 3 2 2 3 3 4 5 7 8 8 8 6 6 7 7 6 6 5 6 6 6 6 5 4 3 4 5 4 5 5 4 4 3 3 3 2 1 1 1 1 0 0 1 1 1 0 1 1 1 1 1 1 1 1 2 3 3 4 4 4 4 4 4 4 4 4 4 3 5 5 4 5 2 5 5 4
2 2 3 1 2 5 4 1 1 1 3 6 1 8 4 7 2 1 3 2 2 2 3 4 5 6 6 7 7 8 8 8 8 8 7 8 8 6 4 5 6 6 5 5 5 3 4 4 4 5 5 4 4 5 4 3 3 2 3 2 2 1 2 3 3 2 1 0 0 0 0 0 0 0 1 1 2 2 3 3 4 4 4 3 4 3 3 3 3 4 4 4 4 3 4 4 3
1 4 1 2 2 2 2 1 4 6 1 4 3 2 9 6 1 2 1 3 5 4 6 4 6 4 6 7 7 8 8 9 8 7 6 5 6 7 7 4 4 5 6 6 6 3 3 4 4 5 4 5 5 5 5 4 4 4 4 4 3 3 4 3 3 4 3 2 1 1 0 0 1 1 0 0 1 1 2 2 3 3 2 3 3 3 3 3 3 4 3 3 1 2 3 2 2
5 4 3 1 1 2 4 3 5 5 3 7 8 3 6 4 4 1 3 4 5 5 5 5 6 6 6 7 9 9 9 8 8 8 8 8 6 7 6 6 6 5 5 5 6 4 3 4 4 5 7 5 5 4 4 3 4 4 4 4 4 4 4 3 3 2 3 3 4 3 3 3 2 1 1 1 1 0 1 1 1 1 1 1 1 1 1 2 3 3 1 2 1 2 2 1 0
2 1 2 0 3 3 2 0 2 4 5 7 8 5 3 6 5 5 3 5 4 5 4 6 6 6 6 7 7 8 9 9 9 9 8 8 8 7 6 6 7 7 7 6 5 4 4 4 4 4 4 4 4 5 4 5 5 4 4 3 4 4 4 4 4 4 4 4 4 4 4 3 5 3 3 2 2 2 2 2 1 1 1 1 1 1 1 2 2 2 2 2 1 1 1 1 2
4 4 3 2 2 1 3 0 0 2 3 2 1 8 6 6 5 5 6 5 5 5 6 6 6 6 6 7 7 7 8 8 9 9 8 8 9 9 7 5 6 6 5 5 5 5 5 3 4 4 5 5 5 6 4 6 4 5 4 5 5 4 5 4 4 4 4 5 4 4 5 5 2 4 4 4 4 4 4 4 4 4 4 4 4 4 3 3 3 3 3 3 2 2 3 3 2
1 1 2 3 2 2 1 3 1 1 2 2 1 9 8 10 3 7 5 5 4 5 5 6 6 7 7 8 8 6 7 9 8 8 8 8 8 8 8 7 4 4 6 5 4 3 4 4 4 4 3 5 5 6 5 6 4 4 5 6 6 4 4 4 4 4 5 5 5 5 5 3 5 5 4 5 5 5 4 5 4 4 4 4 4 4 4 3 4 4 4 3 4 4 4 4 3
Wind_Direction
326 320 314 307 15 280 56 5 350 341 59 22 58 24 289 28 311 356 349 343 15 325 337 332 337 23 63 89 99 90 58 78 46 350 336 322 340 329 338 332 331 332 335 336 335 333 337 337 344 335 321 250 231 276 251 247 213 173 182 222 201 224 250 214 196 164 169 175 167 157 167 186 167 168 164 156 156 147 143 159 158 158 113 116 115 113 107 104 101 100 99 100 101 103 110 110 109
320 317 315 346 262 47 288 92 96 38 50 78 6 72 315 318 4 5 327 5 341 302 311 305 27 79 99 117 129 115 71 88 110 187 268 284 316 308 341 331 330 332 334 335 337 338 335 335 339 345 335 324 289 216 227 251 145 191 193 198 210 208 220 198 213 229 174 176 171 170 172 162 149 159 155 162 146 127 147 153 166 137 143 124 122 118 114 107 104 104 101 100 101 102 106 110 111
331 353 348 31 33 66 77 33 99 59 101 79 332 29 314 2 357 318 305 289 291 304 291 272 161 42 28 112 60 34 50 107 45 354 278 304 326 335 339 331 332 328 332 336 333 341 329 333 342 344 353 333 320 294 232 219 199 197 200 202 220 217 196 195 200 202 213 175 166 156 157 151 149 150 150 150 138 136 143 145 164 200 160 164 138 129 120 115 110 107 105 102 101 103 104 104 100
357 59 60 34 211 32 49 27 71 105 84 159 78 327 355 329 307 293 291 284 308 331 336 34 52 342 333 58 22 120 78 60 30 354 327 334 332 323 330 329 331 324 328 337 334 337 329 335 348 349 352 355 329 316 296 229 210 212 200 220 214 207 191 184 224 208 216 187 166 160 161 158 155 153 143 128 126 138 142 139 159 179 204 157 145 127 127 124 118 115 113 111 106 105 103 98 93
42 327 108 95 95 7 83 83 101 68 76 344 118 287 333 313 302 322 304 314 308 13 14 349 82 38 53 65 14 50 333 298 348 348 324 300 325 327 321 328 332 326 334 340 337 339 332 331 352 350 353 348 355 334 303 277 213 217 229 220 214 197 186 198 198 211 224 186 180 173 166 161 155 146 136 135 135 142 150 151 162 176 167 185 164 134 132 129 125 121 118 117 113 107 104 99 96
49 38 19 65 69 163 59 52 27 63 146 147 69 298 315 313 316 322 303 301 255 52 20 27 26 0 29 11 11 104 343 36 323 332 328 321 326 325 321 326 331 336 339 338 337 340 330 335 348 352 352 353 346 350 341 310 252 209 208 230 213 199 183 175 233 227 217 193 186 181 175 164 160 158 154 150 150 155 154 159 155 171 170 202 163 148 139 132 130 127 122 119 118 113 101 97 92
311 39 8 45 39 50 92 88 79 97 18 130 101 293 326 323 319 326 343 355 53 0 27 13 332 86 87 180 69 100 82 51 336 325 328 318 321 323 326 330 336 338 342 338 335 341 338 343 348 351 350 351 349 344 346 348 324 248 228 220 217 209 202 184 207 221 209 198 198 190 180 168 168 171 170 165 163 166 168 164 162 165 165 172 143 160 147 138 132 130 127 121 118 114 101 89 89
61 104 334 83 49 58 49 93 76 149 29 83 179 274 343 332 332 354 352 45 324 25 345 339 345 98 112 104 139 165 67 39 340 304 319 322 323 325 329 334 336 333 343 338 339 338 342 344 349 350 352 349 352 345 346 344 341 326 250 229 218 215 212 203 213 213 207 206 210 201 182 174 174 185 183 180 179 174 174 173 169 162 166 164 181 167 150 141 133 130 128 130 121 115 102 87 80
24 78 290 71 57 55 70 61 107 15 189 16 346 278 338 335 339 9 6 9 330 349 347 348 321 95 324 37 56 180 72 10 342 318 328 323 332 331 332 337 334 331 334 341 340 343 339 345 347 352 350 349 349 342 342 343 341 337 319 242 228 222 218 213 214 217 220 219 222 205 195 183 186 193 195 188 195 190 180 177 177 174 176 184 174 162 155 146 136 137 136 138 139 130 114 95 83
37 67 27 101 142 71 72 5 73 12 57 272 343 355 341 341 353 45 345 9 1 302 343 328 35 73 311 79 83 15 339 348 336 339 346 338 333 329 334 336 336 330 336 340 340 340 343 343 350 353 351 347 345 342 338 347 340 335 338 307 245 231 226 221 215 222 234 260 263 245 204 197 201 201 201 198 200 200 190 187 186 185 180 182 174 168 161 151 148 147 150 154 154 144 125 107 91
38 12 138 73 46 93 96 106 101 19 28 343 347 352 16 345 3 30 22 303 350 347 314 1 40 11 2 331 131 172 58 2 4 350 336 333 329 334 333 333 331 333 336 338 339 342 345 345 348 353 348 348 344 340 340 341 342 334 332 336 302 241 229 222 223 215 202 227 235 235 217 206 208 207 210 207 202 204 203 199 193 191 188 182 180 173 166 159 157 153 162 162 159 143 129 113 99
59 12 26 92 73 139 183 124 122 305 316 8 3 347 346 9 30 17 350 24 345 344 30 14 343 335 22 343 240 247 355 6 357 334 330 329 330 326 325 326 328 329 336 333 341 346 342 348 346 346 346 345 346 338 340 343 338 334 331 328 332 305 245 224 224 222 221 217 215 242 242 237 222 208 214 217 219 226 208 208 194 189 194 192 185 179 170 164 159 163 168 165 158 142 135 120 107
100 49 82 75 349 52 102 73 316 19 352 14 336 323 351 54 48 346 291 23 348 3 1 350 287 134 24 351 280 333 1 351 345 335 330 333 328 323 316 323 326 324 336 341 344 346 347 344 347 344 337 344 342 340 339 344 338 331 332 328 327 327 293 250 232 224 221 220 230 231 243 209 218 213 206 203 210 227 219 210 205 191 196 195 189 176 175 168 163 172 170 160 154 144 136 121 109
103 160 102 109 34 101 77 114 48 79 15 301 305 306 325 55 305 17 88 28 1 24 286 307 25 1 96 347 319 329 342 341 335 333 327 327 327 327 322 320 329 328 339 344 349 347 346 347 343 341 338 338 339 338 338 343 338 332 331 330 326 325 322 280 239 230 221 221 227 235 225 235 237 230 205 204 200 204 231 214 211 200 199 192 185 171 183 178 170 177 174 159 154 146 137 125 108
107 161 84 108 51 75 2 74 45 115 62 18 327 359 343 109 143 52 41 34 355 244 304 299 316 78 322 17 307 350 329 330 331 328 325 322 337 334 332 323 327 329 341 349 347 350 350 343 345 341 341 343 342 337 335 335 334 331 328 329 327 329 327 305 270 248 220 212 218 222 238 239 226 227 216 242 226 206 218 222 207 203 205 185 178 180 187 185 174 178 174 165 157 148 136 126 109
122 90 74 87 18 89 353 77 47 73 21 358 318 332 226 302 8 42 332 294 253 318 33 353 2 72 260 192 262 310 312 323 325 324 329 346 343 339 338 338 336 333 343 349 352 351 346 348 344 343 344 345 342 332 336 332 327 329 325 328 324 327 317 299 262 232 225 196 211 210 217 225 225 223 209 219 228 221 207 200 206 194 197 190 179 182 187 186 177 177 175 172 161 146 137 124 108
32 78 60 44 58 49 343 49 60 13 275 305 330 19 42 314 316 234 106 50 50 313 352 290 1 8 119 233 273 302 315 316 327 335 358 354 350 352 351 351 348 342 347 354 354 350 347 345 349 345 341 341 339 334 331 331 325 328 323 326 321 320 313 303 260 220 216 202 208 221 224 223 217 212 210 209 214 215 195 191 207 196 184 187 186 185 190 182 176 170 178 168 160 146 136 115 91
51 50 105 52 144 59 255 86 169 186 45 310 348 346 26 7 343 313 138 349 34 304 0 312 341 31 234 270 292 286 323 342 342 2 360 356 358 353 355 355 352 344 340 341 354 351 346 347 344 346 342 340 334 334 336 328 330 328 327 323 315 319 312 301 253 219 212 190 204 218 212 218 215 230 216 215 209 213 203 203 211 230 179 211 202 193 188 175 169 172 177 166 159 135 113 95 86
68 101 63 117 158 88 159 206 225 107 289 246 264 308 34 341 320 320 35 328 2 3 341 355 307 300 334 341 339 341 340 345 355 6 0 2 358 354 349 343 347 341 341 340 340 352 347 340 344 343 342 337 333 335 336 332 328 332 333 322 312 313 311 297 253 223 174 192 199 207 215 212 201 202 216 212 212 211 212 199 209 210 206 204 181 229 173 162 164 182 178 168 150 121 112 96 93
22 109 81 52 204 177 205 195 189 193 182 294 0 308 63 297 99 302 54 304 356 9 339 339 350 325 335 321 334 327 338 335 357 357 3 359 356 349 345 345 340 341 332 332 331 337 344 344 341 341 339 337 337 331 337 332 330 338 333 327 315 309 306 297 260 221 193 199 203 202 213 216 206 201 219 217 219 216 217 201 215 231 230 245 205 213 173 169 177 175 167 139 124 120 111 104 109
335 67 130 166 185 128 242 186 222 210 180 161 158 259 31 304 265 71 271 24 327 298 230 285 303 307 307 310 319 323 347 360 0 3 3 359 354 351 334 318 323 322 317 321 332 337 342 344 340 340 340 338 342 337 340 335 337 339 337 329 319 314 300 301 268 214 192 184 205 209 216 221 213 206 215 223 213 207 216 204 189 201 198 208 229 190 146 144 162 158 128 116 123 126 116 114 121
86 84 145 131 163 82 212 214 214 183 151 99 348 53 261 303 74 70 102 107 297 285 309 307 267 277 294 321 328 344 7 5 1 2 357 351 348 344 342 339 329 306 315 341 342 334 338 342 341 338 335 340 345 341 336 335 336 340 341 332 322 316 310 302 267 212 185 176 173 205 224 232 226 221 219 229 223 204 207 209 201 188 204 199 196 158 147 159 162 152 129 115 127 97 113 127 132
96 343 52 234 205 126 285 3 346 65 40 40 27 244 350 47 288 225 137 188 240 179 254 269 249 266 290 266 347 6 3 360 358 354 345 345 341 338 337 334 337 338 341 339 339 335 331 340 342 343 338 338 347 347 333 334 338 333 337 335 333 320 316 308 266 200 160 143 173 198 212 232 220 210 218 228 225 203 203 196 191 189 193 202 165 178 174 139 152 142 129 138 127 128 125 122 127
83 123 54 45 227 68 22 355 52 48 40 0 237 334 246 355 350 129 270 255 237 296 294 271 303 310 335 21 4 3 349 353 337 328 331 326 323 323 322 321 323 321 328 332 339 341 339 338 343 344 339 339 340 350 340 338 337 336 338 342 332 324 323 317 306 56 86 87 62 35 286 229 226 219 220 225 219 204 206 192 184 194 188 194 165 157 160 157 139 124 129 125 121 126 132 141 147
74 88 291 1 40 351 337 15 8 356 339 287 11 354 305 241 232 14 281 271 301 329 0 8 348 14 16 18 359 352 356 349 349 340 338 337 330 320 319 318 318 324 334 337 338 340 341 341 339 345 340 337 339 345 348 341 336 337 344 343 334 334 326 314 317 341 51 109 99 83 36 24 312 262 239 228 217 205 206 189 190 195 193 191 173 145 158 151 142 138 133 139 143 161 148 144 135
39 83 103 20 25 344 6 18 5 2 304 25 357 334 316 313 279 256 263 315 349 329 27 2 6 18 6 353 350 359 351 342 334 345 332 320 321 330 333 333 332 337 330 324 332 337 334 338 339 345 344 340 341 348 352 345 338 341 346 343 329 336 329 315 320 331 321 91 72 56 55 54 30 325 257 235 230 204 162 119 113 13 249 183 134 139 169 159 151 140 152 155 162 151 135 140 123
127 81 77 90 338 27 359 45 357 339 68 342 7 337 327 331 24 316 327 306 316 25 357 350 21 9 345 344 342 350 347 328 325 314 327 333 332 341 327 329 338 331 328 332 336 333 333 335 335 341 346 344 346 347 355 344 340 345 345 340 329 340 332 323 324 326 317 27 81 75 56 47 49 25 331 269 204 120 117 131 82 105 80 104 128 126 133 154 162 159 163 173 136 114 130 129 118
57 132 102 31 351 55 7 19 8 350 19 49 11 312 326 330 56 270 283 326 7 63 345 343 4 357 336 326 335 327 326 307 318 340 328 335 337 334 330 334 334 336 340 339 338 335 336 337 331 338 345 344 346 355 354 345 345 348 343 343 343 345 335 331 332 333 317 20 44 47 54 48 44 37 24 352 3 101 82 75 64 55 37 14 76 99 78 65 80 118 138 119 115 109 84 69 76
142 324 83 324 6 34 13 18 337 19 357 21 340 27 3 347 55 326 313 326 25 62 342 337 345 338 323 321 323 328 308 307 318 327 306 301 311 320 316 319 322 332 328 325 329 337 342 338 338 342 348 347 342 5 352 344 338 351 348 343 348 344 339 332 347 352 343 16 35 42 29 49 57 45 33 29 349 31 67 73 67 45 28 17 51 74 89 86 81 97 98 104 101 99 99 92 86
156 37 103 27 3 16 360 319 348 10 319 10 349 36 305 291 266 286 336 351 13 357 328 320 321 325 319 322 321 313 310 321 323 303 299 309 315 315 314 315 322 321 320 325 331 344 345 339 346 345 354 350 345 15 356 342 340 354 354 342 351 358 357 347 345 346 0 8 29 38 28 26 39 33 25 43 49 8 43 60 50 50 27 41 52 60 70 56 72 70 75 90 79 87 84 73 84
118 306 59 47 19 344 346 29 341 34 291 6 38 99 312 292 314 295 335 3 114 300 300 307 318 321 321 320 319 310 299 284 290 294 295 301 303 302 302 307 317 316 312 321 337 331 343 346 351 346 356 353 340 19 354 341 341 355 347 350 356 9 6 358 346 356 12 356 26 48 46 37 28 33 22 13 62 62 11 47 42 37 36 42 45 43 65 56 54 53 47 86 84 81 82 74 81
27 59 349 333 54 296 324 4 32 33 321 351 55 56 286 288 277 311 330 15 101 302 297 307 315 313 318 318 319 314 300 302 301 298 292 299 309 307 306 311 317 324 327 322 327 337 334 346 346 349 357 357 339 16 347 339 341 345 343 2 6 14 15 8 352 358 3 7 32 39 42 50 42 29 22 24 31 61 42 32 32 17 21 48 52 46 52 55 53 50 26 60 101 80 83 71 67
7 76 226 340 357 320 346 12 31 12 286 340 49 226 328 317 305 331 348 15 27 277 303 304 310 309 311 315 313 306 314 317 317 306 308 308 302 296 298 304 323 324 325 340 342 342 342 346 347 358 359 349 357 1 340 340 336 347 360 4 20 22 21 14 353 3 2 17 32 30 31 48 52 47 40 30 44 45 52 28 19 23 21 35 44 45 49 37 55 63 40 21 61 104 92 88 74
2 21 53 220 14 333 358 315 4 1 41 323 1 94 227 260 301 310 342 6 322 296 288 302 303 300 298 305 307 302 308 310 310 312 306 311 298 298 298 305 315 320 325 341 344 348 344 352 348 358 353 9 3 332 340 333 331 342 12 8 28 30 22 6 3 11 9 22 31 27 14 54 56 53 49 42 30 65 62 52 34 32 35 39 48 49 51 47 46 60 66 37 37 78 89 97 95
311 343 11 337 299 238 269 350 326 2 28 49 345 52 305 301 312 326 321 350 319 264 279 287 299 307 311 312 305 301 304 308 294 292 296 302 303 298 306 313 322 327 333 344 349 347 347 360 343 353 356 359 340 333 326 331 332 342 2 16 35 32 19 358 11 27 8 14 37 15 14 45 50 50 50 48 18 50 62 55 42 29 36 48 51 47 39 43 51 50 63 68 56 53 81 92 101
226 196 197 232 355 322 330 267 313 24 339 2 19 342 306 312 324 329 338 349 325 282 305 306 302 302 304 298 296 303 301 295 271 289 292 289 293 302 318 332 335 328 335 348 352 357 356 358 352 346 356 342 317 317 332 338 341 356 5 16 33 25 5 349 18 34 354 18 25 21 29 39 45 48 51 55 39 55 60 56 51 35 32 49 55 52 46 48 53 65 59 76 84 70 58 79 95
148 121 133 216 243 280 274 287 269 334 341 352 333 311 270 288 293 296 313 326 334 328 316 310 302 305 308 310 308 303 303 281 294 294 281 289 303 318 332 342 336 326 342 354 357 356 356 352 353 351 335 332 333 333 352 357 4 351 13 27 33 9 352 1 27 24 332 26 23 30 32 40 46 46 45 54 50 50 50 52 49 37 32 43 48 47 43 51 57 65 74 51 81 90 56 27 24
169 173 190 266 226 340 273 277 339 339 61 316 2 348 315 288 302 299 320 359 311 305 310 304 304 303 296 299 309 314 296 291 320 330 324 329 331 329 334 346 353 358 346 357 5 346 343 346 359 344 336 342 345 334 330 344 20 31 18 19 12 14 6 9 20 354 11 30 26 26 39 43 48 44 37 49 52 49 52 54 55 40 30 40 50 48 46 44 47 55 72 77 44 71 69 6 1
6 220 263 128 331 274 292 240 323 333 102 319 15 6 317 318 306 307 313 301 274 275 240 270 296 303 307 308 310 314 328 320 324 306 307 316 323 323 332 329 347 353 324 345 351 354 346 348 349 351 345 341 336 326 336 349 0 31 59 40 348 56 36 34 12 11 25 38 33 33 36 39 44 43 39 44 56 55 54 57 61 52 42 39 53 49 45 47 40 47 48 92 96 62 78 29 12
60 351 52 13 292 24 333 304 353 350 49 333 339 354 293 321 305 285 269 292 296 293 283 280 262 274 286 292 299 300 300 308 313 308 304 307 305 310 327 333 335 338 348 348 354 359 354 346 342 344 346 347 350 349 345 341 350 6 22 143 104 71 33 11 29 18 33 37 38 40 44 41 43 45 42 52 61 65 64 61 61 58 52 45 57 62 52 45 41 42 45 42 53 91 48 43 20
310 109 117 84 343 314 199 272 335 304 246 295 337 90 335 345 8 349 324 329 318 340 344 344 322 247 265 284 290 241 263 289 295 311 314 315 323 318 310 303 319 345 340 344 346 346 346 344 340 343 344 354 352 355 353 354 359 5 354 359 5 7 25 17 358 29 24 27 34 32 27 36 46 52 49 46 53 59 60 63 64 62 63 57 59 63 60 55 51 48 46 60 55 101 90 75 39
327 242 157 142 277 295 278 312 350 24 316 24 38 43 309 305 296 295 301 348 355 328 12 348 328 333 343 334 312 312 287 236 257 285 289 292 287 299 314 318 329 332 332 325 328 327 343 341 353 351 353 356 1 356 353 358 13 23 12 20 12 359 15 7 19 7 359 10 21 20 31 29 32 38 30 45 48 51 58 58 59 55 55 64 60 65 70 64 53 52 35 55 78 72 105 85 79
62 341 129 43 287 236 286 320 15 40 82 343 27 112 259 328 348 329 322 329 320 326 11 339 344 342 337 323 312 307 307 319 306 279 278 294 289 300 298 303 305 316 299 316 328 340 343 343 345 358 353 350 354 356 358 5 20 22 26 33 32 14 27 21 1 0 9 18 29 37 37 33 33 40 40 41 47 51 58 57 60 58 52 42 46 61 60 49 53 54 47 58 58 71 84 91 85
349 290 79 333 303 203 235 92 107 154 311 295 44 65 155 306 295 262 309 304 333 353 348 342 337 331 323 318 313 310 314 305 298 301 302 271 262 255 271 279 290 274 289 321 326 335 348 341 337 345 350 352 354 344 12 18 35 24 28 26 36 40 35 17 357 2 3 11 43 36 39 41 39 39 44 43 41 45 52 53 58 65 65 55 51 57 58 53 62 54 57 63 67 61 75 100 104
259 307 244 309 190 163 95 76 66 1 52 318 347 354 55 264 265 301 333 20 350 335 334 321 315 316 318 318 318 321 315 303 289 301 302 304 290 270 254 271 266 287 288 291 302 306 312 329 337 345 355 358 348 355 6 15 28 38 33 33 47 20 27 14 359 10 22 10 44 25 32 29 32 34 38 43 41 41 43 51 50 53 54 51 52 58 53 51 54 59 53 54 59 56 55 66 89
286 117 75 80 75 64 73 106 78 346 65 315 306 343 92 293 272 339 346 48 336 295 305 296 292 294 296 309 319 322 323 326 320 285 286 294 290 281 267 278 290 265 265 276 290 307 316 336 354 357 350 346 343 357 9 15 18 26 49 38 66 39 13 8 25 33 28 22 51 34 29 31 24 30 29 31 38 34 40 43 50 53 56 57 55 63 63 59 55 57 51 60 59 70 50 62 74
58 81 56 19 39 25 11 60 78 60 27 258 212 300 123 285 272 231 17 320 235 300 303 293 309 327 330 325 317 314 317 320 322 322 314 301 288 282 286 269 271 294 288 291 286 292 300 334 341 341 312 327 351 356 11 19 16 29 36 30 33 34 9 21 47 33 18 36 53 43 41 40 37 40 32 35 35 30 38 40 46 49 49 49 50 50 50 53 50 56 55 59 60 67 67 72 73
120 89 102 68 345 16 29 343 36 83 287 254 211 0 163 62 300 298 232 277 240 212 247 286 310 311 312 313 311 316 322 319 317 324 324 330 332 331 313 296 289 282 303 284 265 264 275 295 342 328 318 339 341 359 9 9 23 30 37 37 48 3 15 40 62 61 30 48 43 55 31 54 44 49 45 50 38 31 44 44 44 50 49 49 49 48 48 47 47 52 53 57 59 58 62 73 77
32 114 41 93 288 30 302 10 3 6 214 33 176 336 27 241 218 261 303 274 271 219 219 239 272 295 305 312 315 315 313 320 325 324 325 329 328 322 328 320 318 299 279 278 269 257 250 260 245 239 286 304 318 344 19 3 36 25 22 37 97 88 61 70 65 75 36 64 41 49 40 51 37 50 29 49 27 31 44 54 51 55 56 51 54 54 49 48 52 58 63 63 59 58 56 66 74
2 28 16 58 29 35 307 273 219 308 287 264 179 278 225 246 292 227 225 262 242 246 241 248 254 267 288 296 311 315 314 314 314 312 310 313 314 318 313 308 305 302 287 272 278 269 249 233 226 209 248 270 292 322 341 15 355 335 6 164 127 128 133 113 69 109 56 74 73 81 71 66 66 64 51 46 17 33 44 46 52 55 54 53 57 59 57 53 57 63 60 64 58 51 59 67 74
304 191 75 142 137 112 314 248 348 252 253 286 275 27 246 9 229 201 217 261 285 257 257 262 255 256 266 279 284 305 323 328 328 319 312 305 309 311 309 309 306 301 296 290 270 267 271 249 229 230 251 265 251 256 276 234 272 307 329 281 164 156 136 127 133 141 106 73 46 81 77 65 86 65 70 51 46 58 54 55 59 59 54 57 55 58 58 56 56 69 68 77 71 64 73 80 80
236 156 116 54 346 158 45 215 176 295 338 329 331 214 181 189 232 275 304 300 269 286 292 321 309 300 292 327 342 326 320 318 324 321 318 313 310 312 312 313 310 307 301 295 281 251 245 248 236 228 225 234 226 233 231 214 238 252 242 230 237 273 81 118 96 60 70 118 111 92 72 83 89 65 35 63 33 68 68 71 66 67 68 70 72 77 73 72 69 79 73 69 74 62 83 81 89
292 60 22 202 172 100 90 86 89 60 58 261 223 314 296 292 350 311 346 7 229 341 316 336 312 325 341 354 326 321 312 314 319 321 314 309 314 314 305 303 308 310 310 301 290 256 238 248 245 248 247 251 241 228 229 218 227 224 228 219 225 193 169 177 188 200 198 206 132 131 122 226 2 81 57 68 69 57 76 83 80 75 67 76 73 70 81 78 74 73 77 73 67 54 72 74 74
45 46 237 95 118 123 118 249 330 60 95 263 31 266 310 18 302 319 324 328 275 285 284 291 296 296 355 328 319 307 304 299 296 289 284 274 276 285 300 293 282 287 288 298 296 275 235 236 233 249 260 250 244 233 232 222 219 224 232 229 227 206 197 207 195 194 194 168 208 191 85 189 209 206 141 79 89 77 58 65 82 73 65 72 84 75 75 75 78 66 71 74 65 72 78 60 59
101 133 169 63 329 0 332 88 9 350 340 297 312 284 251 197 257 334 278 235 263 275 287 316 305 329 321 314 312 311 309 315 315 314 315 315 308 304 300 298 298 290 278 273 284 289 267 248 235 225 247 245 250 249 247 246 216 220 216 219 214 214 214 215 212 195 175 181 204 209 198 213 235 239 175 175 130 139 75 69 74 72 62 67 57 99 99 92 105 104 87 90 51 86 98 85 292
23 40 17 1 99 147 22 81 170 120 279 18 295 25 273 205 229 191 244 233 249 275 309 268 263 271 286 297 301 300 304 305 304 305 305 300 299 291 288 294 303 303 304 298 294 297 280 259 245 245 252 256 260 255 244 243 232 221 235 239 241 224 222 210 204 190 196 203 208 199 205 213 220 202 200 180 185 199 198 199 206 194 209 217 212 228 162 159 130 149 156 164 190 129 145 211 254
338 28 344 356 49 229 98 87 127 170 176 182 277 326 283 263 214 181 227 232 233 220 252 268 266 274 283 285 283 289 294 293 294 296 298 301 302 304 301 291 284 290 278 280 282 284 283 289 262 247 246 257 247 244 229 242 233 233 231 234 233 222 231 219 214 207 209 217 215 207 208 212 190 220 197 193 204 209 207 202 206 212 209 216 214 228 214 180 190 209 219 207 200 188 205 240 231
200 150 139 166 31 22 35 281 14 74 90 233 106 270 278 277 177 207 220 249 247 249 227 260 270 274 282 287 293 284 287 291 284 289 293 295 296 298 300 305 298 300 298 299 291 293 291 276 260 264 252 251 250 251 227 238 228 232 228 238 238 229 228 215 218 217 221 224 221 217 216 199 210 226 194 208 208 213 205 204 204 218 218 216 219 222 214 188 204 216 231 214 214 209 220 234 223